Location: Barrio de Canyet
(41.4665°N, 2.2381°E)
Time: 08:38:22
(UTC+00:00)

USA 245 - Pass Details

Date: 09 April 2020
Orbit: 269 x 1016 km, 97.9° (Epoch: 01 June)

Event Time Altitude Azimuth Distance (km) Brightness Sun altitude
Exits shadow 21:07:20 69° 194° (SSW) 989 4.3 -27.7°
Maximum altitude 21:08:02 81° 257° (WSW) 956 4.4 -27.8°
Drops below altitude 10° 21:14:28 10° 346° (NNW) 2,792 7.6 -28.7°
Sets 21:17:06 0° 347° (NNW) 3,771 8.4 -29.1°
